{"data":{"norad_id":56375,"epoch":"2026-09-19T04:19:13.537920Z","epoch_age_seconds":225971,"freshness":"STALE","line1":"1 56375U 23061B   26262.18001780 -.00002452  00000+0 -79584-4 0  9992","line2":"2 56375  43.0034 184.9886 0001272 262.4644  97.6063 15.27585796186344","mean_motion":15.27585796,"eccentricity":0.0001272,"inclination_deg":43.0034,"raan_deg":184.9886,"arg_perigee_deg":262.4644,"mean_anomaly_deg":97.6063,"bstar":-7.9584e-5,"rev_number":18634,"period_min":94.266391044657,"perigee_km":482.1590001216,"apogee_km":483.90448144926,"semimajor_km":6861.1687407854,"source":"CELESTRAK","updated_at":"2026-09-21T09:00:33.430330Z"}}